Wind_Speed
35 33 32 31 31 28 27 27 25 25 24 22 21 21 19 17 16 14 13 12 11 10 8 7 6 6 6 6 7 7 8 8 8 8 8 9 9 9 9 8 8 8 8
39 37 35 34 33 32 29 29 28 27 26 24 23 23 22 20 19 17 15 14 13 12 11 9 8 8 8 7 7 8 8 8 9 9 9 9 9 9 9 8 9 9 9
41 40 37 35 34 33 31 30 31 29 29 27 26 25 24 22 21 20 18 17 16 14 13 12 11 10 10 9 9 9 9 9 9 9 9 9 9 9 9 9 9 9 9
42 41 41 38 36 35 34 33 31 31 31 29 28 27 26 26 24 22 21 20 18 17 16 15 14 12 12 11 11 10 10 10 10 10 10 10 9 9 9 9 9 10 10
40 41 41 41 40 38 37 36 35 34 33 31 30 29 28 27 27 25 24 23 21 20 19 17 16 15 14 13 13 12 12 11 11 11 11 10 10 10 10 10 10 10 10
38 39 40 41 42 41 39 38 37 36 35 32 31 31 30 29 28 27 26 25 24 23 21 20 18 17 16 15 15 14 13 13 12 12 12 11 11 10 10 10 10 10 11
36 37 38 39 41 42 41 40 39 38 37 35 33 30 31 31 29 28 27 27 27 25 24 22 21 20 19 18 17 16 15 15 14 14 13 13 12 12 12 12 12 12 12
32 34 36 37 39 41 42 42 41 39 39 37 35 33 31 32 31 30 29 28 28 27 26 25 24 23 21 20 20 19 18 17 16 15 15 14 14 14 14 14 13 14 14
30 32 34 35 37 39 41 42 42 40 40 39 37 36 33 32 33 32 32 31 30 29 28 27 26 25 24 23 22 21 20 19 18 18 17 16 16 16 16 16 16 16 16
26 28 31 33 35 37 39 40 41 41 41 41 40 39 36 34 34 33 33 33 32 31 30 29 27 27 26 25 24 23 22 21 20 19 19 18 18 18 17 17 17 17 18
23 25 28 30 32 33 36 38 39 41 42 42 42 41 39 38 36 34 34 34 33 32 32 31 30 29 28 27 27 25 24 23 22 22 21 20 20 20 19 19 19 20 20
20 21 24 26 28 31 33 35 37 39 41 42 42 42 42 39 38 36 35 34 34 34 34 34 33 31 30 29 28 27 26 25 25 24 23 23 22 22 22 22 21 21 21
16 18 20 22 24 27 30 32 33 36 39 40 41 42 41 40 39 38 37 36 36 35 34 34 34 33 32 31 30 29 29 28 27 26 26 25 24 24 24 23 23 23 23
12 14 16 18 20 23 26 28 30 32 35 38 40 41 41 40 40 40 38 36 36 36 35 34 33 34 33 33 32 32 31 30 29 28 27 26 26 26 25 25 25 25 25
10 10 12 15 16 19 22 25 27 29 32 34 37 39 40 40 40 41 39 37 36 36 36 36 34 34 35 34 33 33 32 31 31 30 29 28 28 27 27 27 26 26 27
8 8 9 11 13 16 19 22 24 26 28 31 33 36 38 39 39 40 40 38 38 37 37 36 35 35 35 34 33 33 33 32 32 31 30 30 30 29 29 29 29 29 28
10 8 7 9 11 13 16 19 21 23 26 28 30 33 36 37 38 38 39 39 39 38 37 36 35 34 34 33 33 33 33 33 33 33 33 32 32 31 31 31 30 29 29
12 10 8 8 9 11 14 17 19 21 23 25 28 30 33 35 37 37 38 38 38 38 36 35 35 35 35 34 33 34 34 34 34 34 33 33 32 31 31 31 31 30 30
14 12 10 8 7 8 11 14 16 19 21 23 25 27 30 33 34 35 35 36 36 36 36 35 35 35 35 35 35 34 34 33 34 33 33 33 33 32 32 32 31 30 29
15 13 11 10 8 6 8 10 13 16 18 21 23 24 26 28 31 32 33 33 35 35 35 34 34 34 35 35 34 34 34 34 33 34 34 34 34 33 33 32 31 30 29
17 15 13 11 10 7 6 7 10 13 15 18 20 22 23 24 27 28 30 31 32 33 33 33 32 31 32 33 33 33 33 33 32 32 34 35 34 33 32 31 31 30 30
19 16 15 13 11 9 6 6 7 10 12 14 17 19 21 22 23 25 28 28 29 30 32 32 32 30 30 31 31 31 31 31 32 32 33 33 32 31 31 31 30 30 29
20 19 17 14 13 10 8 5 4 7 9 11 13 16 18 19 20 21 24 25 25 26 28 29 28 28 28 28 29 30 29 29 30 30 31 31 29 28 29 29 28 28 27
21 20 19 17 14 12 9 6 4 2 5 7 10 13 15 17 18 19 20 23 23 23 24 25 26 27 27 27 28 28 28 27 28 29 28 27 26 26 27 26 25 24 23
22 21 20 19 17 14 11 8 6 3 1 4 7 9 11 13 15 17 18 19 20 21 22 22 23 25 25 25 24 25 24 24 25 25 24 23 23 22 22 22 21 21 21
23 21 20 20 18 15 12 10 8 6 4 1 2 6 8 10 13 14 16 17 18 19 20 20 20 22 23 23 22 22 22 22 23 22 22 22 21 20 19 19 19 19 18
Wind_Direction
258 257 256 255 251 250 245 239 239 241 241 242 241 238 237 238 238 237 235 232 228 223 220 212 204 194 190 186 181 181 184 187 190 194 198 201 202 200 202 205 207 210 214
257 255 254 253 250 249 247 241 238 239 239 238 239 238 237 237 237 236 234 232 230 226 222 217 212 205 200 195 189 188 190 192 195 200 201 203 207 207 210 211 214 217 221
257 255 254 252 251 247 246 244 240 239 237 238 239 237 236 234 235 234 233 232 230 229 225 220 216 210 208 205 201 200 200 199 201 204 206 208 208 210 214 218 223 224 227
255 254 253 252 251 248 245 244 240 239 238 238 237 236 236 234 233 234 234 232 230 229 227 223 219 216 212 211 209 208 208 208 209 210 211 211 212 215 219 223 228 231 233
254 253 252 251 250 248 246 245 241 240 240 239 238 237 237 235 233 233 234 232 231 229 228 226 224 220 217 216 214 214 214 214 216 215 215 217 220 222 226 229 233 238 238
253 252 251 249 248 247 246 245 242 239 238 238 237 237 235 233 233 233 234 232 231 230 229 229 227 224 222 220 218 217 218 219 221 221 221 222 224 228 231 235 239 243 246
253 251 250 248 247 246 245 243 242 240 237 235 235 236 234 231 231 232 232 231 231 230 230 229 229 227 225 223 221 221 221 223 224 225 227 229 231 234 237 240 243 247 251
253 250 249 247 246 245 244 242 240 240 237 234 234 235 234 232 231 231 230 230 231 231 230 229 230 229 228 227 226 225 225 226 227 229 231 235 238 241 244 246 249 252 254
254 251 249 246 245 244 243 242 240 239 238 235 235 234 232 232 232 232 230 230 231 230 230 230 231 231 230 228 228 228 228 229 231 233 236 238 242 246 248 250 252 254 257
256 253 251 247 245 244 243 242 241 239 238 236 236 234 232 230 231 232 231 230 230 229 230 231 232 232 232 232 231 231 231 233 235 237 239 242 244 246 249 251 253 255 258
260 255 251 248 245 244 243 242 240 238 237 236 235 234 233 231 231 231 231 231 231 231 231 231 233 233 234 234 234 234 236 237 238 241 242 245 246 247 249 251 255 258 260
263 257 252 248 246 244 242 241 239 238 237 237 235 235 234 233 232 231 232 232 232 233 232 233 233 234 236 235 235 237 238 240 241 243 244 246 247 248 251 253 256 259 261
267 258 253 248 245 244 242 240 238 237 236 236 235 234 234 234 232 231 231 233 234 234 234 234 234 236 238 238 237 238 240 241 242 244 245 247 249 251 253 254 257 260 263
279 264 256 251 246 243 241 240 239 236 236 235 232 232 232 233 232 232 232 233 234 235 235 236 236 236 238 238 238 239 241 242 242 245 247 248 250 252 254 256 259 263 265
297 276 262 253 248 244 241 241 239 237 236 234 231 231 232 233 232 232 232 231 233 235 235 236 236 237 238 238 239 241 241 243 245 247 249 249 251 253 255 257 260 263 266
327 297 275 260 252 246 241 239 238 236 234 233 231 230 231 232 234 234 234 233 233 235 235 235 236 237 238 239 239 239 240 244 246 247 249 251 253 255 257 258 261 263 266
351 331 301 279 262 250 244 241 238 236 234 234 232 231 230 231 234 235 235 235 235 236 236 236 236 237 239 240 239 240 242 244 246 248 251 252 254 254 256 258 262 264 265
4 353 331 302 277 260 250 245 242 239 237 235 233 231 230 232 234 236 237 237 237 238 238 239 239 239 240 242 243 243 245 246 247 249 251 253 254 255 257 259 261 262 264
9 2 352 336 304 277 261 251 246 241 238 236 234 233 232 232 234 236 238 238 238 239 239 240 241 241 240 241 244 246 246 248 249 249 251 252 253 254 256 259 259 260 263
11 6 2 353 335 303 274 256 245 241 238 236 235 234 233 233 234 235 236 238 239 239 238 238 240 240 240 241 242 245 248 248 248 250 249 250 252 253 254 256 256 259 262
12 8 3 355 349 333 300 265 248 241 238 236 234 233 234 235 235 235 235 236 237 238 237 238 239 241 241 241 243 245 246 246 248 249 248 250 251 251 252 254 256 258 261
16 13 9 6 360 349 331 295 257 243 237 236 234 233 234 235 236 236 234 235 236 235 236 238 240 240 243 244 245 245 244 245 248 248 250 252 252 251 252 254 255 257 259
18 18 17 14 11 3 351 332 289 250 240 236 233 231 231 232 232 233 232 231 232 234 236 237 239 241 243 243 244 244 242 246 248 247 248 249 249 250 253 254 255 256 259
21 20 20 18 16 15 11 6 358 279 237 232 231 229 229 229 229 229 229 230 229 229 233 235 238 238 240 240 241 242 241 243 244 246 245 246 247 250 250 252 253 253 255
22 22 22 21 22 22 24 23 20 8 268 234 227 224 223 225 224 225 226 226 224 225 229 231 234 234 235 236 236 237 238 239 240 241 241 242 243 246 245 245 245 245 247
20 21 22 23 25 26 30 31 30 31 37 56 198 207 212 216 216 216 219 219 221 224 227 226 228 230 231 232 232 234 237 239 239 238 236 238 239 242 241 240 244 244 244
Height
5858 5859 5861 5862 5864 5865 5867 5869 5871 5873 5875 5876 5878 5879 5881 5883 5884 5885 5886 5887 5888 5889 5889 5890 5890 5890 5891 5892 5892 5893 5894 5895 5896 5897 5899 5900 5901 5902 5903 5904 5905 5906 5907
5850 5852 5853 5855 5857 5858 5860 5863 5865 5868 5869 5871 5873 5875 5877 5879 5880 5882 5883 5884 5886 5886 5887 5888 5889 5889 5890 5891 5892 5893 5893 5895 5896 5897 5898 5899 5900 5901 5902 5903 5904 5905 5906
5841 5843 5845 5847 5849 5851 5853 5856 5859 5861 5863 5865 5867 5870 5872 5874 5876 5878 5880 5881 5883 5884 5885 5886 5887 5888 5889 5890 5891 5892 5893 5894 5895 5896 5897 5898 5899 5900 5901 5902 5903 5904 5904
5831 5834 5837 5839 5841 5843 5846 5849 5851 5854 5857 5859 5862 5864 5866 5869 5872 5874 5876 5877 5879 5881 5882 5884 5885 5886 5887 5888 5889 5890 5891 5893 5894 5895 5896 5897 5898 5899 5900 5901 5901 5902 5903
5821 5824 5827 5830 5832 5835 5838 5841 5844 5847 5850 5853 5855 5858 5861 5864 5866 5869 5871 5873 5875 5877 5879 5881 5882 5884 5885 5886 5887 5888 5890 5891 5892 5893 5894 5895 5897 5897 5898 5899 5900 5900 5901
5812 5814 5817 5820 5823 5826 5830 5834 5837 5840 5843 5846 5849 5852 5855 5858 5860 5863 5866 5868 5871 5873 5875 5877 5879 5881 5882 5884 5885 5886 5888 5889 5890 5892 5893 5894 5895 5896 5896 5897 5898 5898 5899
5803 5805 5807 5810 5813 5817 5821 5825 5828 5832 5835 5839 5842 5845 5848 5851 5854 5857 5860 5863 5866 5868 5871 5873 5875 5877 5879 5880 5882 5884 5885 5887 5888 5889 5891 5892 5893 5893 5894 5895 5895 5896 5896
5793 5795 5798 5801 5804 5807 5811 5815 5819 5823 5826 5831 5835 5838 5841 5845 5848 5851 5854 5857 5860 5863 5865 5868 5870 5873 5875 5877 5879 5880 5882 5884 5885 5886 5888 5889 5890 5891 5891 5892 5892 5893 5893
5785 5787 5789 5792 5795 5798 5802 5806 5810 5814 5818 5822 5827 5830 5834 5838 5841 5844 5847 5851 5854 5857 5860 5863 5865 5868 5870 5872 5874 5876 5878 5880 5882 5883 5884 5885 5886 5887 5888 5889 5889 5890 5890
5778 5779 5781 5783 5786 5789 5792 5796 5800 5805 5809 5814 5818 5822 5827 5830 5833 5837 5841 5844 5847 5851 5854 5857 5860 5862 5865 5867 5870 5872 5874 5876 5878 5879 5880 5882 5883 5883 5884 5885 5885 5886 5886
5771 5772 5773 5775 5778 5781 5784 5788 5791 5796 5800 5805 5809 5813 5818 5822 5826 5830 5834 5837 5841 5844 5847 5851 5854 5857 5859 5862 5865 5867 5869 5871 5873 5875 5876 5877 5878 5879 5880 5881 5881 5881 5882
5764 5765 5766 5768 5770 5773 5776 5779 5783 5787 5791 5796 5801 5805 5809 5814 5818 5823 5826 5830 5834 5837 5840 5844 5847 5850 5853 5856 5859 5862 5864 5866 5868 5870 5871 5872 5873 5874 5875 5876 5876 5877 5877
5759 5759 5760 5762 5764 5766 5768 5771 5774 5778 5783 5787 5792 5797 5801 5806 5810 5815 5819 5822 5826 5830 5834 5837 5841 5844 5847 5850 5853 5856 5858 5860 5862 5864 5866 5867 5868 5869 5870 5870 5871 5871 5872
5754 5755 5755 5756 5758 5759 5762 5764 5767 5770 5774 5778 5783 5788 5793 5797 5802 5807 5811 5815 5819 5823 5826 5830 5834 5837 5840 5843 5846 5849 5851 5854 5856 5858 5860 5861 5862 5863 5864 5865 5865 5866 5866
5751 5751 5751 5752 5753 5754 5756 5758 5760 5763 5767 5771 5775 5780 5785 5789 5794 5799 5803 5807 5812 5815 5819 5823 5826 5830 5833 5836 5839 5842 5844 5847 5849 5851 5853 5855 5856 5857 5858 5858 5859 5859 5859
5749 5748 5748 5748 5748 5749 5751 5753 5755 5757 5760 5764 5768 5773 5777 5782 5786 5791 5795 5799 5803 5808 5811 5815 5818 5822 5825 5829 5832 5834 5837 5840 5842 5844 5846 5848 5849 5850 5851 5852 5852 5852 5852
5749 5747 5746 5745 5745 5746 5747 5748 5750 5752 5755 5758 5761 5766 5770 5774 5779 5783 5787 5791 5795 5800 5803 5807 5810 5814 5817 5821 5824 5827 5830 5832 5834 5837 5839 5840 5842 5843 5844 5845 5845 5845 5846
5749 5746 5744 5743 5742 5742 5743 5744 5745 5747 5750 5752 5755 5759 5763 5767 5771 5775 5779 5783 5787 5791 5795 5798 5802 5806 5810 5813 5816 5819 5822 5824 5827 5829 5831 5832 5834 5835 5836 5837 5838 5838 5839
5749 5746 5744 5742 5740 5739 5739 5739 5740 5742 5744 5747 5750 5753 5756 5760 5764 5768 5771 5775 5778 5782 5786 5790 5794 5798 5801 5805 5808 5811 5814 5816 5819 5821 5822 5824 5826 5827 5829 5829 5830 5831 5831
5749 5746 5743 5741 5738 5737 5736 5736 5736 5738 5739 5741 5744 5747 5750 5753 5757 5761 5764 5768 5771 5775 5778 5782 5786 5790 5793 5797 5800 5803 5806 5808 5810 5812 5814 5816 5818 5819 5820 5821 5822 5823 5823
5750 5746 5743 5740 5737 5735 5734 5733 5733 5734 5735 5737 5739 5742 5745 5748 5751 5754 5758 5761 5764 5768 5771 5775 5779 5782 5785 5789 5792 5795 5797 5799 5801 5804 5806 5808 5810 5811 5812 5813 5814 5815 5816
5751 5747 5743 5740 5737 5734 5732 5731 5730 5731 5732 5733 5735 5737 5740 5743 5745 5748 5751 5754 5758 5761 5765 5769 5772 5775 5778 5782 5784 5787 5789 5792 5794 5796 5798 5800 5801 5803 5804 5805 5806 5808 5808
5753 5748 5744 5740 5737 5734 5732 5730 5729 5729 5729 5730 5732 5734 5736 5738 5741 5743 5746 5749 5752 5755 5759 5762 5766 5769 5772 5775 5778 5780 5782 5784 5787 5789 5790 5792 5794 5795 5797 5798 5799 5800 5801
5754 5750 5746 5742 5738 5734 5732 5730 5728 5728 5728 5728 5729 5730 5732 5734 5736 5739 5741 5744 5747 5750 5753 5757 5760 5763 5766 5768 5771 5773 5775 5777 5779 5781 5783 5785 5787 5788 5790 5791 5792 5793 5795
5757 5752 5748 5744 5740 5736 5733 5731 5729 5728 5727 5727 5727 5728 5729 5731 5733 5735 5738 5740 5742 5745 5748 5751 5754 5756 5759 5762 5764 5766 5769 5771 5773 5775 5777 5779 5780 5782 5783 5785 5786 5787 5788
5760 5755 5750 5746 5742 5738 5735 5733 5731 5729 5728 5727 5727 5727 5728 5729 5731 5732 5735 5737 5739 5742 5744 5746 5749 5751 5754 5756 5758 5761 5763 5765 5767 5769 5771 5773 5775 5776 5778 5779 5780 5782 5783